User: anonymous   Login
Location: Bukit Lungun
(2.6833°N, 113.9667°E)
Time: 17:30:30
(UTC+00:00)
Language:

Cosmos 1408 Rocket - Orbit

View from above orbital plane
View from above orbital plane
View from above satellite
View from above satellite

Ground track
Ground track

The orbit data is extracted from the following two-line orbital elements,

1 13553U 82092B   21129.14381536  .00000072  00000-0  56708-5 0  9994
2 13553  82.5691 349.1166 0022107  29.1327  91.5457 14.84272601 66879
Epoch (UTC): 09 May 2021 03:27:05
Eccentricity: 0.0022107
inclination: 82.5691°
perigee height: 600 km
apogee height: 631 km
right ascension of ascending node: 349.1166°
argument of perigee: 29.1327°
revolutions per day: 14.84272601
mean anomaly at epoch: 91.5457°
orbit number at epoch: 6687

The dashed part of the orbit path shows where the satellite is in the earth's shadow,  

DLR